Weather History for Las Americas, Dominican Republic

Change the Weather History Date:

Tuesday, March 5, 2013

  Actual Average Record
Temperature  
Mean Temperature 77 °F -  
Max Temperature 86 °F 86 °F 89 °F (1998)
Min Temperature 68 °F 67 °F 64 °F (2011)
Cooling Degree Days 12    
Growing Degree Days 27 (Base 50)    
Moisture  
Dew Point 68 °F    
Average Humidity 76    
Maximum Humidity 94    
Minimum Humidity 47    
Precipitation  
Precipitation 0.00 in 0.06 in - ()
Sea Level Pressure  
Sea Level Pressure 30.05 in    
Wind  
Wind Speed 9 mph ()    
Max Wind Speed 14 mph    
Max Gust Speed -    
Visibility 6.5 miles    
Events      
Averages and records for this station are not official NWS values.
T = Trace of Precipitation, MM = Missing Value Source: Averaged Metar Reports

Daily Weather History Graph

Daily Weather History Graph

Search for Another Location

Airport:

Trip Planner

Search our weather history database for the weather conditions in past years. The results will help you decide how hot, cold, wet, or windy it might be!

Date:

Astronomy

Mar. 05, 2013 Rise Set
Actual Time 6:54 AM AST 6:45 PM AST
Civil Twilight 6:32 AM AST 7:07 PM AST
Nautical Twilight 6:07 AM AST 7:33 PM AST
Astronomical Twilight 5:42 AM AST 7:58 PM AST
Moon 1:28 AM AST (3/5) 12:57 PM AST (3/5)
Length of Visible Light 12h 35m
Length of Day
11h 51m
Last Quarter, 41% of the Moon is Illuminated
Mar 5
Last Quarter
Mar 11
New
Mar 19
First Quarter
Mar 27
Full
Apr 3
Last Quarter

Hourly Weather History & Observations

Time (AST) Temp. Heat Index Dew Point Humidity Pressure Visibility Wind Dir Wind Speed Gust Speed Precip Events Conditions
12:00 AM 71.6 °F - 66.2 °F 83% 30.04 in 6.2 mi NNE 11.5 mph - N/A   Scattered Clouds
1:00 AM 71.6 °F - 66.2 °F 83% 30.06 in 6.2 mi NNE 8.1 mph - N/A   Scattered Clouds
2:00 AM 71.6 °F - 66.2 °F 83% 30.04 in 6.2 mi NNE 9.2 mph - N/A   Scattered Clouds
3:00 AM 69.8 °F - 68.0 °F 94% 30.04 in 6.2 mi North 9.2 mph - N/A   Scattered Clouds
4:00 AM 69.8 °F - 68.0 °F 94% 30.04 in 6.2 mi Calm Calm - N/A   Scattered Clouds
5:00 AM 68.0 °F - 66.2 °F 94% 30.01 in 6.2 mi Calm Calm - N/A   Scattered Clouds
6:00 AM 68.0 °F - 66.2 °F 94% 30.04 in 6.2 mi North 11.5 mph - N/A   Scattered Clouds
7:00 AM 68.0 °F - 66.2 °F 94% 30.04 in 6.2 mi North 11.5 mph - N/A   Scattered Clouds
8:00 AM 69.8 °F - 66.2 °F 88% 30.09 in 6.2 mi North 9.2 mph - N/A   Scattered Clouds
9:00 AM 73.4 °F - 68.0 °F 83% 30.09 in 6.2 mi North 11.5 mph - N/A   Scattered Clouds
10:00 AM 77.0 °F - 69.8 °F 78% 30.09 in 6.2 mi NNE 12.7 mph - N/A   Scattered Clouds
11:00 AM 78.8 °F - 69.8 °F 74% 30.09 in 6.2 mi NNE 13.8 mph - N/A   Mostly Cloudy
12:00 PM 82.4 °F 86.3 °F 69.8 °F 66% 30.09 in 6.2 mi NNE 11.5 mph - N/A   Mostly Cloudy
1:00 PM 84.2 °F 90.9 °F 73.4 °F 70% 30.06 in 6.2 mi NNE 13.8 mph - N/A   Mostly Cloudy
2:00 PM 84 °F - 67 °F 47% 30.05 in 9 mi NNE 11.2 mph - -   Haze
2:00 PM 84.2 °F 86.6 °F 66.2 °F 55% 30.04 in 6.2 mi NNE 11.5 mph - N/A   Mostly Cloudy
3:00 PM 86.0 °F 89.4 °F 68.0 °F 55% 30.01 in 6.2 mi NE 10.4 mph - N/A   Mostly Cloudy
4:00 PM 86.0 °F 89.4 °F 68.0 °F 55% 30.01 in 6.2 mi NE 11.5 mph - N/A   Scattered Clouds
5:00 PM 82 °F - 68 °F 54% 30.01 in 9 mi ENE 13.4 mph - -   Haze
5:00 PM 82.4 °F 85.4 °F 68.0 °F 62% 30.01 in 6.2 mi ENE 13.8 mph - N/A   Mostly Cloudy
6:00 PM 80.6 °F 83.9 °F 69.8 °F 70% 30.01 in 6.2 mi NE 12.7 mph - N/A   Mostly Cloudy
7:00 PM 78.8 °F - 69.8 °F 74% 30.01 in 6.2 mi NE 11.5 mph - N/A   Mostly Cloudy
8:00 PM 75 °F - 67 °F 70% 30.06 in 9 mi NE 11.2 mph - -   Haze
8:00 PM 75.2 °F - 68.0 °F 78% 30.06 in 6.2 mi NE 10.4 mph - N/A   Scattered Clouds
9:00 PM 73.4 °F - 68.0 °F 83% 30.06 in 6.2 mi NE 9.2 mph - N/A   Scattered Clouds
10:00 PM 73.4 °F - 68.0 °F 83% 30.09 in 6.2 mi NE 6.9 mph - N/A   Scattered Clouds
11:00 PM 71.6 °F - 68.0 °F 88% 30.09 in 6.2 mi NE 4.6 mph - N/A   Scattered Clouds